Location: Bothwell
(42.3833°S, 147.0000°E)
Time: 22:35:33
(UTC+11:00)

RS-44 - Pass Details

Date: 27 September 2022
Orbit: 1175 x 1510 km, 82.5° (Epoch: 29 November)

Event Time Altitude Azimuth Distance (km) Brightness Sun altitude
Exits shadow 23:57:26 40° 215° (SW) 2,088 ? -45.8°
Drops below altitude 10° 00:03:40 10° 181° (S) 3,697 ? -45.8°
Sets 00:06:48 0° 175° (S) 4,688 ? -45.8°
